STARLINK-1836 (47127 NORAD) Tracking and Keplerian Element Data

This shows tracking and keplerian element data for the satellite.

Feedback or suggestion? Click here.




ElementValue
Catalog47127
NameSTARLINK-1836
Epoch Orbit1595
Epoch Day60.91667824
Epoch Year2021
RAAN239.356
Inclination53.0508
Eccentricity0.0004683
Argument of Perigee289.8975
Mean Anonmoly279.6314
Mean Motion15.46210043
Decay Rate-0.00550195
L11 47127U 20088F 21060.91667824 -.00550195 00000-0 -11801-1 0 9990
L22 47127 53.0508 239.3560 0004683 289.8975 279.6314 15.46210043 15959

Live tracking and technical data element details for STARLINK-1836 (NORAD 47127). STARLINK-1836 can be tracked NOW for your location showing map with azimuth and elevation plus other details from your city location.

Track the satellite on the map from your city or location and see movement details for azimuth, elevation, latitude, longitude, range, height, and movement on the map or in text.







IsCatalogInMostPopularTable: catalog: 47127, numindb: 24
Update: records affected: 1



GetName: 47127 STARLINK-1836

Hit Count: updated at: Tue, 02 Mar 2021 13:35:06 GMT